www.pogodaiklimat.ru

Погода и климат >> Архив погоды >> Япония >> Йонагуни


ПОГОДА на Йонагуни

  • Прогноз погоды на Йонагуни
  • Монитор погоды на Йонагуни

АРХИВ ПОГОДЫ на Йонагуни

Время (UTC), дата Ветер
(напр.,м/с)
 
Видим.   Явления Облачность Т
(С)
Тd
(С)
f
(%)
Тe
(С)
Тes
(С)
Комфортность P
(гПа)
Po
(гПа)
Тmin
(С)
Tmax
(С)
R
(мм)
R24
(мм)
S
(см)
22 10.06 ЮЗ 1 4700 м слаб. дождь н/о +27.0 +27.0 100 +42 +42 опасность
перегрева
1003.8 999.7
23 10.06 В 3 12 км слаб. дождь н/о +26.2 +25.9 98 +39 +39 очень
душно
1004.6 1000.5
00 11.06 С 5 12 км слаб. дождь н/о +26.1 +25.8 98 +38 +38 очень
душно
1004.7 1000.6 +25.2 3
01 11.06 СВ 7 11 км слаб. дождь н/о +25.9 +25.6 98 +38 +38 очень
душно
1004.4 1000.3
02 11.06 СВ 5 18 км слаб. дождь н/о +26.4 +25.7 96 +39 +39 очень
душно
1004.8 1000.7
03 11.06 СВ 6 19 км слаб. дождь н/о +26.6 +25.7 95 +39 +39 очень
душно
1004.5 1000.4
04 11.06 СВ 4 15 км в посл. час дождь н/о +27.2 +25.2 89 +39 +39 очень
душно
1004.0 999.9
05 11.06 СВ 6 20 км в посл. час дождь н/о +27.4 +25.2 88 +40 +40 очень
душно
1003.7 999.6
06 11.06 СВ 5 20 км {дождь} н/о +27.2 +25.0 88 +39 +39 очень
душно
1003.5 999.4 2
07 11.06 В 3 2500 м дождь н/о +26.2 +25.2 94 +38 +38 очень
душно
1003.9 999.8
08 11.06 В 5 6000 м дождь н/о +25.9 +25.6 98 +38 +38 очень
душно
1003.8 999.7
09 11.06 СВ 8 3300 м дождь н/о +25.5 +25.3 99 +37 +37 очень
душно
1003.9 999.8
10 11.06 С 9 2800 м дождь н/о +23.8 +23.5 98 +32 +32 очень
душно
1004.7 1000.5
11 11.06 СВ 9 7000 м слаб. дождь н/о +24.3 +24.0 98 +33 +33 очень
душно
1005.4 1001.3
12 11.06 С 7 12 км слаб. дождь н/о +24.4 +23.9 97 +33 +33 очень
душно
1006.3 1002.1 +28.2 33
13 11.06 СВ 6 17 км слаб. дождь н/о +24.7 +24.2 97 +34 +34 очень
душно
1006.6 1002.5
14 11.06 СВ 6 20 км слаб. дождь н/о +25.3 +24.6 96 +36 +36 очень
душно
1007.0 1002.9
15 11.06 СВ 5 20 км в посл. час дождь н/о +25.5 +24.5 94 +36 +36 очень
душно
1006.8 1002.7
16 11.06 В 3 16 км слаб. дождь н/о +25.6 +24.6 94 +36 +36 очень
душно
1006.5 1002.4
17 11.06 СВ 5 20 км в посл. час дождь н/о +25.8 +24.6 93 +36 +36 очень
душно
1006.1 1002.0
18 11.06 СВ 5 20 км {дождь} н/о +25.9 +24.3 91 +36 +36 очень
душно
1005.5 1001.4 0.5
19 11.06 СВ 7 20 км н/о +25.8 +24.8 94 +37 +37 очень
душно
1005.4 1001.3
20 11.06 СВ 7 20 км в посл. час дождь н/о +25.9 +24.7 93 +37 +37 очень
душно
1005.7 1001.6
21 11.06 С 7 20 км {дождь} н/о +25.9 +24.1 90 +36 +36 очень
душно
1006.2 1002.1
23 11.06 СВ 6 20 км н/о +26.7 +24.0 85 +37 +37 очень
душно
1007.1 1003.0
00 12.06 СВ 6 20 км {дождь} н/о +26.5 +24.4 88 +37 +37 очень
душно
1007.4 1003.3 +24.3 0.5
01 12.06 СВ 5 20 км н/о +27.3 +24.6 85 +39 +39 очень
душно
1007.6 1003.5
02 12.06 СВ 5 20 км н/о +27.4 +24.3 83 +38 +38 очень
душно
1007.5 1003.4
03 12.06 СВ 4 13 км н/о +27.7 +24.4 82 +39 +39 очень
душно
1007.4 1003.3
04 12.06 СВ 4 17 км слаб. дождь н/о +27.0 +23.7 82 +37 +37 очень
душно
1007.2 1003.1
05 12.06 СВ 3 6000 м слаб. дождь н/о +26.6 +24.8 90 +38 +38 очень
душно
1006.7 1002.6
06 12.06 СВ 5 20 км слаб. дождь н/о +26.2 +24.2 89 +36 +36 очень
душно
1006.5 1002.4 0.5
07 12.06 СВ 4 10 км слаб. дождь н/о +26.2 +24.6 91 +37 +37 очень
душно
1006.1 1002.0
08 12.06 В 3 11 км слаб. дождь н/о +25.9 +24.7 93 +37 +37 очень
душно
1005.6 1001.5
09 12.06 В 4 5000 м слаб. дождь н/о +25.1 +24.4 96 +35 +35 очень
душно
1005.9 1001.8
10 12.06 СВ 5 4500 м слаб. дождь н/о +25.1 +24.9 99 +36 +36 очень
душно
1006.1 1002.0
11 12.06 В 5 10 км в посл. час дождь н/о +24.5 +23.8 96 +33 +33 очень
душно
1006.7 1002.5
12 12.06 СВ 5 9000 м слаб. дождь н/о +25.4 +24.4 94 +35 +35 очень
душно
1006.9 1002.8 +28.1 6
13 12.06 СВ 4 17 км слаб. дождь н/о +25.3 +23.4 89 +34 +34 очень
душно
1007.3 1003.2
14 12.06 СВ 5 17 км слаб. дождь н/о +25.1 +23.0 88 +33 +33 очень
душно
1007.2 1003.1
15 12.06 СВ 4 16 км в посл. час дождь н/о +25.4 +24.0 92 +35 +35 очень
душно
1006.6 1002.5
16 12.06 В 3 19 км н/о +25.3 +23.9 92 +35 +35 очень
душно
1006.3 1002.2
17 12.06 В 3 20 км н/о +25.6 +24.0 91 +35 +35 очень
душно
1005.6 1001.5
18 12.06 СВ 3 19 км слаб. дождь н/о +25.6 +23.1 86 +34 +34 очень
душно
1004.7 1000.6 1
19 12.06 В 2 20 км в посл. час дождь н/о +24.7 +23.5 93 +33 +33 очень
душно
1004.1 1000.0
20 12.06 В 2 20 км н/о +24.8 +23.4 92 +33 +33 очень
душно
1003.9 999.8
21 12.06 ЮВ 2 18 км {дождь} н/о +24.9 +24.1 95 +34 +34 очень
душно
1004.2 1000.1
22 12.06 ЮВ 3 18 км н/о +25.5 +24.8 96 +36 +36 очень
душно
1004.2 1000.1
23 12.06 В 2 20 км н/о +27.0 +25.2 90 +39 +39 очень
душно
1004.5 1000.4
00 13.06 В 4 20 км {дождь} н/о +28.2 +26.0 88 +42 +42 опасность
перегрева
1004.3 1000.2 +24.6 1
01 13.06 ЮВ 4 20 км н/о +27.5 +25.7 90 +41 +41 опасность
перегрева
1004.7 1000.6
02 13.06 ЮВ 4 20 км в посл. час дождь н/о +28.1 +26.5 91 +43 +43 опасность
перегрева
1004.6 1000.5
03 13.06 З 3 19 км слаб. дождь н/о +27.2 +25.6 91 +40 +40 очень
душно
1004.5 1000.4
04 13.06 СЗ 4 17 км в посл. час дождь н/о +26.5 +25.8 96 +39 +39 очень
душно
1004.0 999.9
05 13.06 СЗ 4 н/о н/о +26.9 +25.5 92 +39 +39 очень
душно
1003.0 998.9
05 17.06 0 н/о н/о +28.9 +25.7 83 1010.1 1006.0
06 17.06 ЮЗ 2 20 км н/о +29.3 +26.3 84 +45 +45 опасность
перегрева
1009.9 1005.8
07 17.06 З 3 20 км н/о +28.3 +25.7 86 +42 +42 опасность
перегрева
1009.9 1005.8
08 17.06 З 1 20 км н/о +28.5 +25.5 84 +42 +42 опасность
перегрева
1009.5 1005.4
09 17.06 ЮЗ 2 20 км н/о +28.3 +25.1 83 +41 +41 опасность
перегрева
1009.7 1005.6
10 17.06 Ю 1 20 км н/о +28.2 +25.6 86 +42 +42 опасность
перегрева
1010.3 1006.2
11 17.06 Ю 2 20 км н/о +27.2 +25.2 89 +39 +39 очень
душно
1010.8 1006.7
12 17.06 Ю 1 20 км н/о +27.1 +25.3 90 +39 +39 очень
душно
1011.4 1007.3 +29.5
13 17.06 ЮВ 1 20 км слаб. дождь н/о +26.6 +25.6 94 +39 +39 очень
душно
1011.7 1007.6
14 17.06 штиль 0 20 км в посл. час дождь н/о +26.3 +25.6 96 +39 +39 очень
душно
1012.0 1007.9
15 17.06 Ю 1 20 км слаб. дождь н/о +26.7 +25.8 95 +40 +40 очень
душно
1011.9 1007.8
16 17.06 Ю 1 20 км в посл. час дождь н/о +26.7 +26.2 97 +40 +40 очень
душно
1011.2 1007.1
18 17.06 ЮВ 2 20 км в посл. час дождь н/о +26.8 +26.5 98 +41 +41 опасность
перегрева
1010.2 1006.1 0.0
19 17.06 Ю 3 20 км в посл. час дождь н/о +27.0 +26.3 96 +41 +41 опасность
перегрева
1009.8 1005.7
20 17.06 Ю 3 20 км н/о +27.3 +26.8 97 +42 +42 опасность
перегрева
1009.7 1005.6
21 17.06 Ю 3 20 км {дождь} н/о +27.5 +27.0 97 +43 +43 опасность
перегрева
1009.9 1005.8

 

Местоположение метеостанции Йонагуни (Япония): широта 24.47 долгота 123.01 высота над уровнем моря 36 м.

В архиве по умолчанию представлена погода на Йонагуни за последнюю неделю. Архивные данные за месяц целиком и за предыдущие месяцы, начиная с января 2011 года, Вы можете получить, выбрав интересующий диапазон дат из раскрывающегося списка и нажав кнопку "Ввод!".


*Определитесь, кто Вы:
робот инопланетянин человек

Внимание! Время в таблицах - всемирное. Для получения местного времени необходимо прибавить поправку, которая равна 9 ч.

Смотрите также архив погоды в соседних городах и на ближайших метеорологических станциях:

Погода на Ириомоте (Япония) (76 км)
Погода в Игисаки (Япония) (118 км)
Погода на Пенгджия (Тайвань, Китай) (161 км)
Погода в Тайбэе (Тайвань, Китай) (164 км)
Погода в Миякодзиме (Япония) (232 км)
Погода в Тайчжуне (Тайвань, Китай) (239 км)
Погода в Тайдонге (Тайвань, Китай) (269 км)
Погода в Ланьюе (Тайвань, Китай) (310 км)
Погода в Тайнане (Тайвань, Китай) (329 км)
Погода на Пинтане (Фуцзянь, Китай) (346 км)

Пояснения к столбцам:

Ветер - указаны скорость ветра в м/с - средняя за 10 мин, порывы в срок и между сроками (в фигурных скобках) и направление, откуда дует ветер: С - северный, СВ - северо-восточный, В - восточный, ЮВ - юго-восточный, Ю - южный, ЮЗ - юго-западный, З - западный, СЗ - северо-западный.
Видимость - горизонтальная дальность видимости в метрах или километрах. При видимости от 1 до 10 км при отсутствии осадков обычно наблюдается дымка, при ухудшении видимости до 1 км и менее - туман. В сухую погоду видимость может ухудшаться дымом, пылью или мглою.
Явления - указаны атмосферные явления, наблюдавшиеся в срок или в последний час перед сроком; фигурными скобками обозначены явления, наблюдавшиеся между сроками (за 1-3 часа до срока); квадратными скобками обозначены град или гололедные отложения с указанием их диаметра в мм.
Облачность - указаны через наклонную черту общая и нижняя облачность в баллах и высота нижней границы облаков в метрах; квадратными скобками обозначены формы облаков: Ci - перистые, Cs - перисто-слоистые, Cc - перисто-кучевые, Ac - высококучевые, As - высокослоистые, Sc - слоисто-кучевые, Ns - слоисто-дождевые, Cu - кучевые, Cb - кучево-дождевые. Подробнее классификацию облаков см. в Атласе облаков (PDF).
T - Температура воздуха - температура, измеренная на высоте 2 м над землей.
Td - Температура точки росы - температура, при понижении до которой содержащийся в воздухе водяной пар достигнет насыщения.
f - Относительная влажность воздуха - влажноcть воздуха, измеренная на высоте 2 м над землей.
Te - Эффективная температура - температура, которую ощущает одетый по сезону человек в тени. Характеристика душности погоды. При расчете учитывается влияние влажности воздуха и скорости ветра на теплоощущения человека.
Tes - Эффективная температура на солнце - температура, которую ощущает человек, с поправкой на солнечный нагрев. Характеристика знойности погоды. Зависит от высоты солнца над горизонтом, облачности и скорости ветра. Ночью, в пасмурную погоду, а также при ветре 12 м/с и более поправка равна нулю.
P - Атмосферное давление - приведенное к уровню моря атмосферное давление.
Po - Атмосферное давление - измеренное на уровне метеостанции атмосферное давление.
Tmin - Минимальная температура - минимум температуры воздуха на высоте 2 м над землей.
Tmax - Максимальная температура - максимум температуры воздуха на высоте 2 м над землей.
R - Количество осадков - Количество выпавших осадков за период времени, мм. При наведении курсора мыши на число - период времени, за который выпало указанное количество осадков.
R24 - Количество осадков - Количество выпавших осадков за 24 часа, мм.
S - Снежный покров - Высота снежного покрова, см. При наведении курсора мыши на число - состояние снежного покрова и степень покрытия местности в баллах.